シューメーカー第1彗星

102P/Shoemaker 1 (2021)

English version
Home page
Updated on March 27, 2022

---------------------------------------------------------------------

・ プロフィール

・ 写真集

・ 軌道要素

Epoch 2022 Jan. 21.0 TT = JDT 2459600.5
T 2021 Jan. 22.51779 TT                                 Rudenko
q   2.0704202            (2000.0)            P               Q
n   0.13231620     Peri.   20.58034     +0.98757164     -0.03215338
a   3.8141173      Node   339.36552     -0.09218988     +0.67426781
e   0.4571692      Incl.   25.88452     +0.12729214     +0.73778661
P   7.45
From 435 observations 1999 Dec. 31-2022 Jan. 6, mean residual 0".9.
     Nongravitational parameters A1 = -0.54, A2 = -0.1324.

・ 光度変化

        m1 = 14.5 + 5 logΔ + 10.0 log r

---------------------------------------------------------------------

軌道要素はM.P.E.C. 2022-C56に掲載されたものです。
光度グラフはComet for Windowsで作成したものです。

---------------------------------------------------------------------

Copyright(C) Seiichi Yoshida (comet@aerith.net). All rights reserved.